[[{"header":{"parameterUnit":"m.s-1","parameterCategory":1,"la1":30.2991,"la2":30.254,"lo1":-89.0895,"lo2":-89.0444,"dy":0.0017,"dx":0.0017,"nx":28,"ny":28,"refTime":"2023-10-27T03:00:00:Z","depth":0,"parameterNumber":2,"parameterNumberName":"U-component_of_WINDS"},"data":[0,0,0,0,0,0,0,0,0,0,0,0,0,0,0,0,0,0,0,0,0,0,0,0,0,0,0,0,0,0,0,0,0,0,0,0,0,0,0,0,0,0,0,0,0,0,0,0,0,0,0,0,0,0,0,0,0,0,-3.0384,-3.0384,0,-3.0343,-3.0343,-3.0342,-3.0255,-3.0254,-3.0252,-3.025,-3.021,-3.021,-3.0211,0,0,0,0,0,0,0,0,0,0,0,0,0,-3.0389,-3.0389,-3.0384,-3.0384,-3.0383,-3.0343,-3.0343,-3.0342,-3.0256,-3.0254,-3.0251,-3.0249,-3.0209,-3.021,-3.0211,0,0,0,0,0,0,0,0,0,0,0,0,0,-3.0372,-3.039,-3.0384,-3.0335,-3.033,-3.0344,-3.0343,-3.0342,-3.0256,-3.0254,-3.0251,-3.0248,-3.0209,-3.021,-3.0211,-3.0269,0,0,-3.0213,-3.0214,0,0,0,0,0,0,0,0,-3.0373,-3.0372,-3.0343,-3.0338,-3.0333,-3.0302,-3.033,-3.0318,-3.0257,-3.0284,-3.025,-3.0247,-3.0242,-3.024,-3.0239,-3.0267,-3.0265,-3.0213,-3.0214,-3.0214,-3.0215,0,0,0,0,0,0,0,-3.0374,-3.0373,-3.0368,-3.0343,-3.0337,-3.0316,-3.031,-3.0327,-3.0279,-3.0282,-3.0275,-3.0272,-3.0239,-3.0238,-3.0237,-3.0265,-3.0213,-3.0214,-3.0215,-3.0215,-3.034,-3.0343,0,0,0,0,0,0,-3.0382,-3.0374,-3.0369,-3.0367,-3.0347,-3.0318,-3.0312,-3.0315,-3.0278,-3.027,-3.0274,-3.0268,-3.0238,-3.0236,-3.0235,-3.0301,-3.0214,-3.0215,-3.0216,-3.0337,-3.0341,-3.0344,0,0,0,0,0,0,-3.0383,-3.0383,-3.0371,-3.0369,-3.0366,-3.0321,-3.0324,-3.0315,-3.0313,-3.0272,-3.0264,-3.0281,-3.0236,-3.0234,-3.0261,-3.0298,-3.0215,-3.0216,-3.0334,-3.0338,-3.0342,-3.0433,0,0,0,0,0,0,-3.0383,-3.0383,-3.0404,-3.037,-3.0366,-3.0397,-3.0327,-3.0316,-3.0315,-3.0307,-3.0277,-3.0269,-3.0233,-3.0261,-3.0262,-3.0298,-3.0217,-3.033,-3.0336,-3.0341,-3.0426,-3.0439,-3.0451,0,0,0,0,0,-3.0384,-3.0431,-3.0405,-3.0405,-3.0391,-3.0399,-3.0397,-3.0354,-3.0318,-3.0339,-3.0313,-3.027,-3.0295,-3.0264,-3.0265,-3.0302,-3.0328,-3.0334,-3.034,-3.042,-3.0437,-3.045,0,0,0,0,0,0,-3.047,-3.0425,-3.0397,-3.0434,-3.0421,-3.0385,-3.0409,-3.0373,-3.037,-3.0362,-3.031,-3.0304,-3.0339,-3.0323,-3.029,-3.0357,-3.0304,-3.0311,-3.0365,-3.038,-3.0392,-3.0394,-3.0218,0,0,0,0,0,-3.0494,-3.0503,-3.0464,-3.0501,-3.0496,-3.0455,-3.0456,-3.0425,-3.041,-3.0404,-3.0379,-3.0367,-3.0371,-3.0375,-3.0377,-3.0425,-3.0417,-3.045,-3.0463,-3.0473,-3.0479,-3.0504,-3.0518,-3.0365,-3.0365,-3.0364,0,0,-3.0542,-3.0519,-3.0528,-3.0518,-3.0504,-3.0516,-3.045,-3.0465,-3.0474,-3.0406,-3.043,-3.0412,-3.0395,-3.0433,-3.0448,-3.0421,-3.052,-3.0481,-3.049,-3.049,-3.0512,-3.0526,-3.0539,-3.0369,-3.0368,-3.0367,0,0,-3.0635,-3.0619,-3.0648,-3.0637,-3.0617,-3.0589,-3.0597,-3.0566,-3.0552,-3.0575,-3.0525,-3.0535,-3.0544,-3.0534,-3.053,-3.0624,-3.0584,-3.0626,-3.069,-3.0714,-3.0726,-3.0737,-3.077,-3.0782,-3.0633,-3.0633,-3.0633,0,-3.0698,-3.0713,-3.0668,-3.0687,-3.0684,-3.0625,-3.0654,-3.0645,-3.0628,-3.0628,-3.0598,-3.0609,-3.0593,-3.0627,-3.0651,-3.065,-3.0657,-3.0628,-3.0728,-3.0738,-3.0747,-3.0778,-3.0791,-3.0638,-3.0637,-3.0637,-3.0636,0,-3.0791,-3.0803,-3.0829,-3.0813,-3.0814,-3.0839,-3.0798,-3.0805,-3.0775,-3.0751,-3.0777,-3.0756,-3.0753,-3.0759,-3.073,-3.0791,-3.0774,-3.0738,-3.0683,-3.0768,-3.0796,-3.0807,-3.0645,-3.0643,-3.0642,-3.0641,0,0,-3.0934,-3.0896,-3.0906,-3.0899,-3.0874,-3.0883,-3.0906,-3.0903,-3.091,-3.0901,-3.0918,-3.0929,-3.0895,-3.0891,-3.086,-3.0882,-3.0958,-3.0842,-3.0841,-3.0864,-3.1024,-3.105,-3.1065,-3.0933,-3.0935,-3.0936,-3.1025,0,-3.102,-3.1056,-3.1018,-3.1061,-3.1072,-3.1017,-3.1037,-3.1025,-3.1004,-3.1011,-3.0988,-3.0996,-3.0951,-3.0949,-3.0968,-3.0944,-3.0989,-3.0938,-3.0948,-3.0949,-3.0952,-3.1079,-3.1107,-3.1191,-3.1036,-3.1037,-3.1039,0,-3.1125,-3.1121,-3.1166,-3.1141,-3.1144,-3.1162,-3.1157,-3.1165,-3.1151,-3.1134,-3.1131,-3.1095,-3.1116,-3.1066,-3.1095,-3.1062,-3.1064,-3.1054,-3.1056,-3.1054,-3.0997,-3.1079,-3.1217,-3.1229,-3.1056,-3.1054,-3.1053,0,-3.1224,-3.1231,-3.1258,-3.1254,-3.1225,-3.1239,-3.1228,-3.1212,-3.1213,-3.121,-3.1211,-3.1211,-3.121,-3.1211,-3.1176,-3.1143,-3.121,-3.1157,-3.1197,-3.1198,-3.1211,-3.121,-3.135,-3.1216,-3.1216,-3.1216,-3.1216,0,-3.1323,-3.1352,-3.1302,-3.1319,-3.1351,-3.1308,-3.1341,-3.1325,-3.1311,-3.1324,-3.1278,-3.1292,-3.1246,-3.1255,-3.1228,-3.1257,-3.1257,-3.1245,-3.1237,-3.1247,-3.1249,-3.1247,-3.1239,-3.1219,-3.1218,-3.1218,-3.1217,0,-3.1437,-3.1405,-3.1431,-3.1403,-3.1397,-3.1421,-3.1397,-3.1412,-3.139,-3.1407,-3.1409,-3.1374,-3.1383,-3.1349,-3.1352,-3.1334,-3.1376,-3.1359,-3.138,-3.1375,-3.1416,-3.1412,-3.1557,-3.1574,-3.1432,-3.1434,-3.1435,0,-3.1501,-3.1523,-3.1497,-3.1503,-3.1494,-3.1504,-3.1506,-3.1466,-3.147,-3.1457,-3.1474,-3.1479,-3.1481,-3.1498,-3.1473,-3.1475,-3.1457,-3.1508,-3.1457,-3.1468,-3.1457,-3.1455,-3.1457,-3.1518,-3.152,-3.1521,-3.1522,0,-3.1619,-3.1602,-3.1606,-3.1606,-3.161,-3.1607,-3.1601,-3.1609,-3.1566,-3.1574,-3.1582,-3.1584,-3.1588,-3.1593,-3.1591,-3.158,-3.1545,-3.1539,-3.1548,-3.1558,-3.1569,-3.1563,-3.1407,-3.1535,-3.1534,-3.1533,-3.1532,-3.1532,-3.1709,-3.1725,-3.1711,-3.1717,-3.1709,-3.1706,-3.1719,-3.1699,-3.1705,-3.1705,-3.1682,-3.1696,-3.1683,-3.1677,-3.167,-3.168,-3.1657,-3.167,-3.1673,-3.1677,-3.1683,-3.157,-3.168,-3.168,-3.1679,-3.1679,-3.1679,0,-3.1822,-3.1811,-3.1818,-3.1812,-3.1818,-3.1785,-3.1778,-3.1785,-3.1797,-3.1789,-3.1792,-3.1803,-3.1809,-3.1787,-3.179,-3.1803,-3.1786,-3.1805,-3.1802,-3.18,-3.1705,-3.1696,-3.1818,-3.1818,-3.1818,-3.1818,-3.1818,-3.1818,-3.1882,-3.1909,-3.1891,-3.1915,-3.1903,-3.1916,-3.1915,-3.1912,-3.1905,-3.1919,-3.1924,-3.1909,-3.1895,-3.1898,-3.1902,-3.1896,-3.1898,-3.1922,-3.191,-3.182,-3.1807,-3.1794,-3.1785,-3.1923,-3.1924,-3.2004,-3.2004,-3.2005]},{"header":{"parameterUnit":"m.s-1","parameterCategory":1,"la1":30.2991,"la2":30.254,"lo1":-89.0895,"lo2":-89.0444,"dy":0.0017,"dx":0.0017,"nx":28,"ny":28,"refTime":"2023-10-27T03:00:00:Z","depth":0,"parameterNumber":3,"parameterNumberName":"V-component_of_WINDS"},"data":[0,0,0,0,0,0,0,0,0,0,0,0,0,0,0,0,0,0,0,0,0,0,0,0,0,0,0,0,0,0,0,0,0,0,0,0,0,0,0,0,0,0,0,0,0,0,0,0,0,0,0,0,0,0,0,0,0,0,1.7147,1.7148,0,1.7183,1.7184,1.7184,1.7263,1.7264,1.7266,1.7268,1.73,1.7299,1.7298,0,0,0,0,0,0,0,0,0,0,0,0,0,1.7144,1.7144,1.7147,1.7148,1.7148,1.7183,1.7184,1.7184,1.7263,1.7264,1.7266,1.7268,1.73,1.7299,1.7298,0,0,0,0,0,0,0,0,0,0,0,0,0,1.7159,1.7144,1.7147,1.7192,1.7196,1.7183,1.7184,1.7184,1.7262,1.7265,1.7267,1.7269,1.73,1.7299,1.7298,1.7244,0,0,1.7295,1.7295,0,0,0,0,0,0,0,0,1.7158,1.7159,1.7185,1.7189,1.7193,1.7221,1.7195,1.7204,1.7261,1.7237,1.7268,1.727,1.7271,1.7273,1.7274,1.7245,1.7247,1.7295,1.7295,1.7294,1.7294,0,0,0,0,0,0,0,1.7157,1.7158,1.7161,1.7185,1.719,1.7209,1.7214,1.7197,1.724,1.7239,1.7245,1.7248,1.7274,1.7275,1.7275,1.7247,1.7295,1.7294,1.7294,1.7293,1.7178,1.7176,0,0,0,0,0,0,1.715,1.7157,1.716,1.7162,1.7182,1.7207,1.7213,1.721,1.724,1.7247,1.7246,1.7252,1.7275,1.7276,1.7277,1.7217,1.7294,1.7293,1.7293,1.718,1.7177,1.7175,0,0,0,0,0,0,1.715,1.715,1.7159,1.7161,1.7164,1.7205,1.7201,1.7209,1.721,1.7246,1.7254,1.7239,1.7277,1.7278,1.7252,1.7219,1.7293,1.7292,1.7183,1.7179,1.7176,1.7094,0,0,0,0,0,0,1.7149,1.7149,1.7129,1.716,1.7164,1.7134,1.7199,1.7208,1.7209,1.7216,1.7241,1.7248,1.7279,1.7253,1.7251,1.7219,1.7291,1.7186,1.7182,1.7177,1.71,1.7088,1.7078,0,0,0,0,0,1.7149,1.7103,1.7128,1.7128,1.7139,1.7132,1.7133,1.7172,1.7206,1.7186,1.7209,1.7247,1.7223,1.725,1.7248,1.7215,1.7189,1.7183,1.7178,1.7105,1.709,1.7078,0,0,0,0,0,0,1.7064,1.7108,1.7135,1.7098,1.7111,1.7145,1.7121,1.7155,1.7157,1.7164,1.7211,1.7216,1.7184,1.7197,1.7226,1.7165,1.7212,1.7206,1.7157,1.7144,1.7133,1.713,1.729,0,0,0,0,0,1.7042,1.7033,1.7071,1.7034,1.704,1.7079,1.7077,1.7106,1.7121,1.7126,1.7147,1.7159,1.7155,1.715,1.7148,1.7103,1.711,1.7079,1.7068,1.7059,1.7053,1.7032,1.7019,1.7156,1.7156,1.7157,0,0,1.6994,1.7017,1.7007,1.7018,1.7031,1.7021,1.7083,1.7068,1.7061,1.7123,1.7101,1.7117,1.7133,1.7098,1.7084,1.7108,1.7017,1.7052,1.7044,1.7043,1.7025,1.7012,1.7,1.7153,1.7153,1.7154,0,0,1.6901,1.6918,1.689,1.6903,1.6924,1.6951,1.6944,1.6974,1.6988,1.6967,1.7014,1.7005,1.6996,1.7006,1.701,1.6926,1.6961,1.6923,1.6865,1.6844,1.6834,1.6824,1.6795,1.6784,1.6917,1.6917,1.6917,0,1.6839,1.6826,1.6871,1.6855,1.6858,1.6917,1.689,1.69,1.6917,1.6918,1.6946,1.6938,1.6952,1.6921,1.6901,1.6902,1.6896,1.692,1.6832,1.6823,1.6815,1.6787,1.6776,1.6913,1.6913,1.6914,1.6914,0,1.6749,1.6739,1.6714,1.6733,1.6734,1.6711,1.6753,1.6749,1.6779,1.6803,1.6781,1.6802,1.6806,1.6801,1.6828,1.6775,1.6789,1.6824,1.6872,1.6796,1.6771,1.6761,1.6906,1.6908,1.6909,1.691,0,0,1.6601,1.6648,1.6638,1.6648,1.6676,1.6669,1.6651,1.6657,1.6652,1.6663,1.6649,1.6642,1.6675,1.6679,1.6709,1.6691,1.6624,1.6728,1.6729,1.6708,1.6567,1.6541,1.6528,1.6648,1.6647,1.6645,1.6566,0,1.6515,1.6487,1.6529,1.6491,1.6483,1.6541,1.6525,1.654,1.6563,1.6559,1.6584,1.6579,1.6622,1.6626,1.6611,1.6635,1.6596,1.6642,1.6635,1.6634,1.6629,1.6515,1.6487,1.6411,1.6556,1.6555,1.6554,0,1.641,1.6419,1.6381,1.6415,1.6413,1.6398,1.6408,1.6404,1.6424,1.6442,1.6449,1.6486,1.647,1.6517,1.6496,1.6526,1.6526,1.6539,1.6537,1.6537,1.6589,1.6512,1.6387,1.6376,1.6539,1.654,1.6541,0,1.6307,1.6309,1.6288,1.6295,1.6333,1.6321,1.6336,1.6359,1.6361,1.6369,1.6371,1.6377,1.638,1.6384,1.6422,1.6453,1.6396,1.6447,1.6411,1.641,1.6395,1.6395,1.6269,1.6395,1.6395,1.6396,1.6396,0,1.6207,1.6181,1.6243,1.6229,1.6203,1.6251,1.6224,1.6245,1.6264,1.6256,1.6306,1.6296,1.6347,1.6343,1.6373,1.6352,1.6352,1.6367,1.6374,1.6362,1.636,1.6362,1.6368,1.6393,1.6393,1.6394,1.6394,0,1.6086,1.6126,1.6107,1.6146,1.6155,1.6134,1.6168,1.6157,1.6185,1.6173,1.6173,1.6216,1.6214,1.6253,1.6258,1.6279,1.6245,1.6262,1.6238,1.6244,1.6206,1.6209,1.6076,1.6061,1.6197,1.6195,1.6194,0,1.6019,1.6001,1.604,1.6039,1.6052,1.6049,1.6053,1.6101,1.6102,1.6125,1.6111,1.6114,1.6119,1.6114,1.6145,1.615,1.6168,1.6121,1.6169,1.6158,1.6168,1.6169,1.6168,1.6111,1.6109,1.6108,1.6107,0,1.5896,1.5918,1.5921,1.5932,1.5935,1.5945,1.5959,1.5955,1.6007,1.6006,1.6007,1.6011,1.6019,1.6021,1.6033,1.6048,1.6086,1.6092,1.6084,1.607,1.6058,1.6065,1.6211,1.6094,1.6095,1.6096,1.6097,1.6097,1.58,1.5788,1.5814,1.5817,1.5833,1.5846,1.5838,1.5866,1.5868,1.5879,1.5908,1.5904,1.5926,1.5946,1.5958,1.5956,1.5979,1.5967,1.5964,1.596,1.5954,1.6059,1.5958,1.5958,1.5959,1.5959,1.5959,0,1.568,1.5701,1.5703,1.5722,1.5725,1.5763,1.5781,1.578,1.5777,1.5795,1.58,1.5802,1.5806,1.5838,1.5846,1.5838,1.5855,1.5838,1.5839,1.5842,1.5932,1.5938,1.5824,1.5824,1.5824,1.5824,1.5824,1.5824,1.5618,1.56,1.5625,1.5617,1.5637,1.5636,1.5643,1.5655,1.567,1.567,1.5675,1.5697,1.5721,1.5732,1.5737,1.5747,1.5747,1.5724,1.5739,1.5822,1.5835,1.5848,1.5854,1.5724,1.5723,1.565,1.5649,1.5648]}]]